Dewpoint
1 2 1 1 2 1 1 1 1 1 1 1 2 4 5 5 5 5 7 5 4 -5 -0 1 -1 1 7 8 8 4 4 5 7 9 9 8 6 4 4 3 5 6 3 5 5 6 6
1 1 1 0 1 1 1 1 0 -0 -0 0 1 2 4 5 5 6 6 6 5 -3 -1 3 -0 -0 5 7 6 7 3 3 6 8 9 8 7 6 4 3 4 4 5 4 4 4 4
1 0 1 1 1 1 0 0 1 0 -0 -1 1 1 2 3 5 6 6 7 5 -2 -1 5 3 1 3 2 2 2 6 2 5 9 8 7 7 6 6 5 6 5 5 2 2 3 3
0 1 1 0 1 1 1 1 -0 0 0 -1 -0 0 1 2 4 6 6 7 5 -2 1 3 2 1 3 1 0 -0 4 6 8 8 8 7 7 6 5 6 4 4 4 5 2 2 1
1 1 0 -0 0 0 0 1 1 0 -0 -0 -0 -0 1 0 2 5 6 7 5 1 4 5 5 3 3 2 2 1 2 4 4 4 4 5 4 3 4 3 4 3 3 4 2 1 2
1 1 1 1 -0 -0 0 0 -0 0 -0 -0 0 0 -2 -0 1 3 6 7 5 4 5 6 5 4 4 3 2 2 1 3 3 3 3 3 3 3 3 4 3 1 4 2 1 0 2
1 0 0 1 1 1 1 0 -1 -1 -1 -1 -1 -1 -1 -2 -0 1 5 6 6 5 5 2 3 2 3 3 3 3 2 2 2 2 3 3 4 5 2 2 0 0 2 2 1 0 2
1 1 1 1 1 1 0 -1 -0 -0 -2 -2 -2 -2 -1 0 -3 -2 3 5 3 2 4 4 3 4 3 3 3 3 2 1 2 3 2 3 5 1 0 1 2 2 2 2 -0 -1 0
1 1 1 1 1 0 -1 -0 -1 -1 -2 -1 -1 -0 0 -0 -0 -3 2 5 4 1 2 5 4 4 3 3 2 3 2 2 2 3 3 3 1 0 1 2 3 2 3 2 2 -0 -1
0 -0 0 -0 -0 -0 -3 -1 -2 -1 -2 0 -1 -0 0 1 -1 -2 1 2 5 4 4 3 4 3 3 3 3 3 2 2 2 2 2 2 0 1 2 2 2 3 -1 0 2 2 3
0 -0 -0 -1 -1 -3 -2 -1 -3 -3 -3 -1 -1 -1 -1 -1 0 1 2 0 4 4 7 1 3 4 3 1 2 4 3 2 2 2 2 2 3 3 3 2 1 2 -0 0 1 2 2
0 -0 -1 -2 -3 -2 -1 -4 -2 -2 -1 -1 -1 -2 -2 -0 -0 -1 1 4 4 4 6 4 4 4 4 2 3 3 3 2 1 1 1 1 0 0 0 0 1 -0 1 1 1 2 5
-1 -1 -2 -2 -2 -1 -1 -3 -1 -2 -1 -1 -1 -3 -2 -1 -0 1 1 3 4 6 1 5 4 3 2 2 4 3 4 4 4 5 5 2 2 0 -0 1 1 1 3 3 5 5 3
-0 -2 -2 -1 -1 -2 -2 -2 -2 -1 -1 -2 -0 2 2 1 -1 1 3 3 6 3 2 1 3 2 3 2 4 3 4 5 2 2 3 4 4 2 1 1 1 2 2 2 1 -2 -2
-1 -2 -1 -1 -2 -2 -1 -2 -3 -2 -3 -0 1 1 1 -2 -1 1 2 5 6 1 1 2 3 4 4 1 2 3 3 2 1 2 5 4 3 0 1 -0 0 2 5 1 4 3 5
-0 -1 -1 -2 -2 -2 -2 -2 -2 -1 -1 1 0 2 2 0 2 2 3 5 2 1 0 1 3 1 3 3 3 2 4 1 2 1 -0 2 4 -0 0 1 1 2 1 4 5 4 3
-0 -2 -1 -2 -2 -4 -3 -2 -2 -1 -0 2 0 2 1 2 2 1 5 4 3 1 0 2 2 2 1 3 2 2 2 0 0 2 1 1 2 3 2 3 2 3 4 5 3 4 2
-0 -1 -2 -2 -3 -4 -2 -2 -1 -1 0 1 1 2 2 2 2 2 4 3 2 2 3 2 1 1 1 2 3 2 2 -0 -1 1 4 1 3 5 3 -1 -1 -1 1 1 5 5 5
-0 -2 -2 -2 -2 -2 -1 -3 -2 -1 1 1 1 2 2 2 4 4 3 3 4 4 4 3 3 1 1 2 3 2 1 -0 0 1 2 2 5 5 3 3 1 3 1 1 4 5 5
-0 -1 -2 -2 -2 -2 -1 -3 -2 -0 1 2 2 3 3 2 3 3 2 3 4 3 4 3 3 2 2 2 1 3 2 1 0 0 1 1 3 5 3 4 2 6 3 4 5 5 3
-1 -1 -2 -2 -2 -2 -2 -3 -3 -0 1 1 1 3 3 4 3 1 1 2 3 4 3 3 3 2 3 3 3 3 2 2 1 1 1 2 6 5 3 3 4 5 5 6 5 3 4
-1 -1 -2 -2 -2 -2 -3 -4 -4 -1 1 1 1 3 2 3 1 1 2 2 2 4 3 3 3 3 2 3 3 3 3 3 2 1 2 3 5 6 5 4 4 6 6 6 6 4 2
-1 -2 -2 -2 -2 -3 -3 -4 -3 -1 0 1 1 2 4 3 2 1 2 1 2 2 3 3 2 3 4 3 2 2 2 1 2 2 3 4 6 6 5 3 4 7 6 6 6 4 3
-2 -2 -2 -2 -2 -4 -3 -6 -3 -3 -0 1 1 1 3 4 2 1 1 1 1 1 4 3 3 4 4 4 4 4 4 5 4 3 2 5 5 5 6 5 9 6 4 4 5 5 3
-2 -3 -2 -3 -4 -4 -5 -7 -5 -5 -1 1 1 1 3 4 1 1 1 0 2 3 3 3 4 3 3 4 5 6 6 5 4 4 4 3 5 7 7 8 5 3 3 6 5 3 1
-3 -3 -4 -7 -4 -4 -5 -8 -3 -12 -5 -1 1 1 2 4 2 1 2 1 1 2 4 3 4 4 4 5 6 7 5 3 4 4 4 4 4 6 7 7 7 3 2 2 2 5 1
-4 -4 -4 -3 -6 -3 -4 -5 -5 -13 -10 -3 -0 0 2 2 4 2 2 3 4 4 5 4 4 4 5 5 7 6 6 2 4 4 5 5 6 6 7 7 4 1 1 4 5 4 0
-8 -4 -3 -14 -21 -12 -4 -10 -9 -13 -15 -5 -2 -0 0 1 3 3 1 3 4 3 4 4 5 5 5 6 5 5 6 4 4 3 4 4 6 6 5 5 7 0 3 3 2 1 0
-12 -6 -3 -16 -22 -9 -4 -4 -4 -3 -6 -6 -2 -2 -0 1 3 4 4 3 2 2 3 4 4 4 4 5 5 5 5 4 4 5 2 5 3 4 4 3 0 1 1 1 1 1 1
Wind_Speed
22 23 23 23 22 24 21 22 22 24 25 24 22 15 17 18 18 17 18 15 13 12 11 9 9 10 9 9 5 4 4 4 10 18 15 11 10 8 8 5 8 12 12 11 11 10 14
22 21 24 23 23 23 24 22 24 25 25 25 26 21 16 15 20 17 19 16 13 12 11 9 8 10 10 10 9 12 4 3 7 17 15 13 7 7 4 5 9 2 7 12 12 17 19
23 24 22 25 24 24 24 25 25 25 25 25 26 24 20 18 15 19 18 20 14 12 12 10 6 7 9 10 9 11 12 8 10 12 14 16 7 6 7 4 4 6 10 12 17 15 13
23 22 23 25 26 26 25 26 25 26 26 25 26 24 23 21 17 17 17 24 16 14 13 9 6 5 5 9 16 8 14 10 10 9 11 11 10 5 3 2 2 4 5 5 2 3 8
22 23 24 26 24 27 26 24 25 26 27 25 25 25 23 23 18 17 16 25 19 16 13 9 6 5 4 6 11 14 15 13 13 11 10 10 7 4 4 6 5 8 7 9 9 6 5
25 25 24 24 25 27 28 27 25 26 29 27 26 23 25 21 23 24 12 19 21 19 15 11 7 4 8 4 8 13 21 16 10 11 7 5 4 5 7 8 5 5 7 7 10 2 7
26 26 25 27 27 28 29 30 26 26 29 29 28 23 25 18 16 23 11 19 21 8 18 11 12 3 8 9 10 11 20 14 11 12 10 9 7 11 13 14 9 4 7 11 9 7 15
28 28 29 30 29 29 28 29 27 27 27 28 24 22 20 16 16 16 26 18 35 8 9 15 10 8 11 11 6 11 19 12 13 11 9 5 11 12 7 10 12 13 15 16 14 12 12
29 29 30 31 31 30 30 29 28 27 26 23 26 17 16 18 16 21 25 19 33 13 4 14 15 11 9 12 6 17 20 10 12 11 15 9 3 0 13 11 12 15 15 13 15 15 17
29 31 32 31 32 32 32 28 27 26 25 26 23 14 15 18 15 14 20 31 15 13 2 9 11 9 14 9 4 14 19 8 4 11 9 9 10 7 7 11 12 14 8 12 13 10 6
30 31 33 31 33 33 30 29 27 25 24 26 24 21 26 21 22 14 10 23 18 15 7 10 7 9 16 15 14 9 15 4 6 8 6 3 6 10 12 11 13 8 5 8 9 11 11
33 34 31 33 33 31 30 29 27 26 26 27 28 29 33 26 19 19 17 20 22 4 6 7 7 11 15 12 7 9 13 4 4 6 7 10 3 5 7 8 13 2 6 9 10 9 7
30 30 31 34 32 31 32 28 27 28 30 28 31 38 42 38 32 12 13 27 4 5 9 9 9 14 16 12 9 10 12 10 6 5 8 5 15 6 8 9 8 10 5 3 4 6 9
33 33 34 33 31 31 30 29 28 31 28 32 40 35 21 25 28 19 18 4 5 6 6 6 15 16 9 17 6 11 12 10 10 3 2 4 4 15 11 16 4 16 14 6 7 11 14
33 34 33 33 32 31 30 31 30 33 30 30 34 10 8 16 25 24 14 4 4 8 12 15 14 8 6 13 6 7 11 8 11 15 7 5 5 2 6 7 11 5 9 15 15 15 9
31 32 32 31 31 32 32 32 33 30 31 39 31 7 7 13 15 14 5 0 2 4 17 17 7 8 9 14 8 10 12 6 8 17 15 2 4 6 3 8 11 14 1 5 6 7 17
30 31 31 31 31 33 32 33 29 30 31 25 31 2 7 13 16 4 3 2 3 14 14 4 7 9 9 13 9 12 6 3 9 12 16 8 4 4 5 12 13 10 8 6 6 7 7
30 31 30 30 32 32 31 32 31 30 31 31 15 1 14 13 3 3 2 3 6 7 0 4 9 10 14 14 11 10 9 5 9 13 11 12 5 7 15 13 13 16 16 19 7 8 6
30 31 31 30 32 33 32 31 30 32 29 35 5 1 8 12 2 3 6 3 3 4 2 3 4 3 5 9 6 9 5 3 11 12 12 11 4 4 4 2 6 9 18 20 12 8 17
29 30 30 30 31 31 33 30 30 35 32 10 2 2 5 2 3 8 10 4 4 6 5 8 7 5 6 5 1 7 7 4 12 15 7 11 6 7 10 14 6 7 13 17 16 10 17
28 28 29 30 29 30 32 29 30 36 30 14 1 3 2 3 5 8 4 4 9 4 3 5 3 3 5 4 5 4 6 2 4 9 9 7 6 11 20 22 21 23 23 17 20 26 16
28 30 28 28 28 28 31 29 28 32 30 16 8 4 5 5 9 11 3 4 5 5 4 4 3 7 6 4 5 5 5 6 5 10 11 6 5 3 13 20 22 22 21 17 20 25 26
27 28 25 27 26 27 29 28 27 27 31 12 21 11 2 4 4 6 4 5 5 6 4 5 5 5 7 7 7 11 10 6 3 5 12 5 1 3 8 13 19 8 7 12 8 19 22
25 26 26 23 25 25 26 28 27 24 24 21 15 10 5 2 2 4 5 3 9 6 4 4 3 2 2 5 4 7 11 10 13 14 11 5 3 3 7 11 4 6 6 10 12 17 19
23 24 23 22 23 24 24 25 26 23 22 16 22 9 6 2 5 7 4 5 5 6 2 3 4 4 6 2 2 3 2 3 8 13 16 15 8 3 3 4 10 4 5 4 3 4 5
20 22 21 21 22 22 22 21 23 22 19 17 12 8 4 3 6 9 7 8 6 4 3 3 0 3 1 2 3 3 3 2 2 4 3 9 11 5 1 4 3 3 5 1 1 3 11
18 19 20 20 21 21 22 20 21 21 17 16 14 12 2 3 6 13 8 9 5 5 2 2 2 2 4 2 2 4 3 1 2 3 4 4 2 6 5 5 7 3 4 2 5 6 17
17 18 18 20 19 20 19 18 19 19 17 15 11 12 11 5 10 9 14 7 5 6 3 5 3 2 2 2 3 3 3 2 2 2 4 7 6 5 4 4 4 3 2 3 4 9 7
18 18 18 19 20 19 21 19 18 16 15 11 11 13 15 8 6 7 8 11 13 9 10 8 0 3 5 3 2 2 3 3 2 2 3 4 5 2 5 3 2 3 9 8 8 8 3
Wind_Direction
355 354 349 348 346 347 347 343 339 338 337 332 329 323 308 288 269 265 251 265 281 259 246 240 230 216 188 214 216 190 220 213 199 194 195 185 194 200 218 214 216 233 249 249 247 249 254
351 350 344 349 345 347 345 342 341 339 334 330 325 319 308 312 268 263 249 250 269 248 237 230 222 211 204 217 229 222 229 223 199 193 188 186 207 215 223 226 227 258 255 262 263 260 260
351 351 349 345 346 340 338 337 337 337 334 331 324 318 293 306 274 261 245 238 250 232 221 217 211 208 218 224 235 221 211 207 169 182 197 207 189 190 180 195 221 264 276 271 261 253 253
345 347 343 342 337 334 333 332 332 331 330 329 321 313 314 283 298 255 238 231 229 213 208 209 209 214 237 228 228 193 185 173 167 182 190 193 189 173 197 162 200 249 262 276 90 267 243
340 338 329 334 331 329 333 327 328 327 327 321 312 312 310 293 294 268 231 229 204 195 189 196 211 213 245 229 218 205 184 169 155 143 142 149 148 176 167 224 239 215 254 232 282 247 284
335 334 328 328 330 326 324 322 321 322 323 318 311 304 296 296 268 250 240 227 185 182 182 175 198 224 225 204 193 192 185 180 167 154 134 161 173 208 214 201 235 231 228 236 252 179 266
333 332 331 328 329 324 322 319 321 317 318 310 305 298 298 292 280 247 241 202 152 158 182 195 187 169 141 150 147 166 171 156 158 189 203 194 208 216 222 221 253 291 267 261 260 267 300
331 331 329 325 323 322 319 324 320 318 317 311 308 302 302 297 269 273 249 199 170 180 186 205 168 157 152 155 131 157 165 162 174 192 170 179 234 239 244 233 239 249 259 264 278 272 270
332 328 327 326 324 321 323 325 321 322 320 317 324 309 310 291 295 269 248 236 191 162 143 180 186 182 178 174 172 177 171 166 183 177 197 209 105 120 210 215 229 240 253 270 274 295 286
332 329 326 325 323 325 327 325 325 324 324 319 318 311 328 324 304 281 254 237 201 182 112 163 189 208 182 158 205 176 175 160 162 199 194 240 240 209 195 223 227 262 251 253 261 279 275
337 332 331 326 326 329 329 328 327 328 326 319 312 307 305 324 308 276 259 229 196 148 203 138 151 157 169 171 136 171 180 170 178 162 172 158 178 196 220 230 216 235 201 242 254 257 283
341 336 334 332 332 333 333 333 330 330 325 318 313 304 301 294 280 260 260 197 166 126 198 156 137 160 153 187 145 131 175 175 186 193 228 256 197 212 222 218 210 102 226 249 262 264 250
345 344 340 335 337 339 333 335 333 331 325 318 309 291 278 274 263 257 234 154 122 220 163 152 172 156 153 166 143 154 173 178 172 168 211 223 229 199 195 222 211 217 202 259 231 207 244
335 334 338 340 341 338 340 342 335 332 326 326 312 317 275 246 215 212 191 167 187 133 145 170 148 153 158 153 155 166 163 187 214 183 132 232 219 196 195 217 213 212 209 222 256 268 283
340 343 342 346 344 344 345 344 343 338 332 331 340 12 99 173 187 199 160 195 148 171 147 142 134 154 125 170 161 148 181 201 202 193 202 182 258 206 206 203 207 181 218 243 268 266 259
342 346 344 347 347 347 346 348 344 340 339 346 352 358 97 164 174 185 157 185 180 151 135 138 130 189 164 167 162 180 183 207 210 194 208 178 262 214 165 204 238 222 246 211 202 248 248
344 345 349 348 349 349 348 348 346 345 346 347 344 327 157 151 164 93 159 163 133 141 135 161 132 140 161 165 176 182 181 187 208 193 194 185 212 155 165 208 210 200 227 218 267 254 262
346 345 349 351 348 351 351 351 346 348 348 347 337 215 169 161 122 193 132 160 112 152 132 101 101 106 155 160 173 191 208 240 187 155 187 198 223 240 237 245 228 235 239 226 233 228 229
347 346 350 353 353 351 354 355 350 348 350 341 317 58 153 188 142 120 136 172 116 165 97 104 106 108 159 163 158 194 198 226 180 186 177 174 211 283 258 192 217 236 240 233 239 255 247
347 349 351 355 355 353 356 356 356 354 353 348 212 133 105 118 117 122 141 110 116 49 65 73 105 98 125 152 125 179 215 219 199 205 176 175 220 232 259 281 315 244 250 228 216 237 256
347 350 350 355 357 357 357 3 2 4 12 12 306 81 83 146 169 143 111 112 131 113 75 103 110 154 154 145 169 215 210 199 197 205 191 212 244 242 259 270 275 269 266 241 221 231 241
352 355 355 354 356 358 0 7 5 8 15 20 11 3 39 93 149 144 69 136 146 111 122 148 146 165 194 177 198 199 195 213 215 197 200 217 275 282 279 268 263 269 262 247 235 236 246
350 354 355 352 1 1 1 9 10 13 15 11 360 12 334 97 147 171 150 165 140 117 65 76 177 134 217 239 258 262 228 238 247 214 201 198 214 300 271 315 309 272 260 252 234 240 243
351 353 353 356 358 0 2 8 10 15 15 14 8 346 348 95 163 150 160 130 175 177 107 151 186 168 189 228 268 264 248 243 242 231 215 189 158 221 290 310 287 319 217 247 256 252 241
351 349 354 357 356 1 2 7 11 11 16 24 26 7 350 116 201 211 210 180 107 93 103 149 173 213 278 280 265 261 205 220 230 223 226 225 231 268 277 298 278 324 352 309 264 328 297
352 349 354 357 358 358 358 5 6 6 12 18 11 12 357 330 213 196 174 186 196 206 167 158 135 297 219 216 218 250 237 207 160 151 20 215 223 218 304 295 309 337 340 357 167 2 354
349 348 353 355 357 356 357 1 353 360 5 12 4 352 336 288 278 207 187 182 179 147 80 114 188 209 213 222 254 246 234 292 207 211 165 133 166 228 236 260 277 271 294 245 343 330 348
340 341 344 347 352 350 346 343 342 349 357 359 352 342 0 287 279 207 210 179 149 158 166 145 167 180 152 231 240 235 233 206 252 200 182 191 187 210 205 242 288 178 235 315 343 325 328
327 331 335 341 347 348 343 345 343 343 344 340 328 333 324 266 268 244 215 211 214 240 204 179 135 145 197 243 201 312 238 207 239 260 182 224 228 280 228 259 358 257 266 286 307 297 308
Height
1521 1518 1515 1511 1508 1504 1501 1498 1495 1491 1487 1484 1481 1480 1480 1478 1478 1478 1479 1480 1480 1480 1480 1480 1482 1483 1485 1485 1484 1484 1486 1488 1488 1490 1494 1497 1500 1500 1498 1499 1501 1498 1494 1497 1497 1497 1496
1522 1518 1515 1511 1507 1504 1500 1497 1493 1489 1485 1482 1478 1476 1475 1473 1473 1473 1475 1477 1477 1478 1478 1479 1479 1480 1483 1483 1481 1482 1485 1486 1487 1490 1493 1495 1498 1500 1499 1499 1498 1497 1497 1495 1494 1493 1492
1522 1518 1515 1512 1507 1503 1499 1496 1491 1487 1483 1480 1476 1473 1470 1469 1467 1469 1470 1472 1474 1474 1476 1477 1477 1477 1479 1479 1479 1480 1483 1486 1488 1490 1492 1494 1496 1499 1499 1498 1499 1497 1495 1490 1488 1488 1488
1519 1514 1511 1508 1505 1500 1496 1493 1489 1485 1481 1477 1474 1470 1467 1464 1462 1463 1465 1467 1470 1471 1473 1474 1474 1476 1476 1473 1476 1479 1481 1485 1488 1490 1492 1494 1496 1498 1499 1499 1497 1495 1494 1488 1481 1485 1483
1516 1512 1507 1505 1501 1497 1492 1488 1485 1481 1477 1473 1469 1466 1463 1460 1459 1457 1459 1461 1464 1468 1470 1470 1473 1476 1474 1471 1474 1476 1480 1485 1488 1491 1493 1494 1496 1497 1498 1496 1494 1492 1484 1488 1483 1482 1481
1513 1509 1504 1500 1496 1492 1488 1483 1479 1476 1471 1468 1464 1461 1457 1455 1454 1452 1454 1457 1458 1463 1467 1469 1471 1477 1471 1470 1471 1474 1477 1482 1488 1491 1494 1496 1496 1494 1493 1493 1481 1478 1488 1485 1483 1479 1480
1509 1505 1500 1496 1492 1487 1483 1477 1473 1469 1466 1461 1457 1453 1451 1448 1447 1448 1450 1454 1454 1461 1461 1460 1460 1465 1465 1468 1471 1473 1476 1481 1486 1490 1489 1493 1492 1489 1484 1487 1485 1487 1486 1482 1479 1480 1481
1506 1501 1497 1492 1486 1482 1476 1471 1467 1462 1458 1454 1451 1447 1445 1443 1442 1441 1442 1438 1441 1447 1455 1457 1458 1462 1464 1466 1471 1473 1477 1481 1484 1483 1488 1492 1488 1483 1487 1488 1489 1488 1485 1481 1478 1479 1480
1503 1498 1492 1486 1481 1475 1470 1465 1460 1456 1451 1448 1444 1442 1441 1439 1437 1434 1433 1436 1442 1442 1447 1453 1456 1459 1463 1465 1467 1471 1476 1478 1479 1482 1482 1479 1481 1483 1487 1487 1488 1485 1483 1481 1481 1478 1476
1498 1493 1487 1481 1475 1469 1464 1459 1454 1450 1446 1443 1441 1438 1437 1434 1435 1430 1429 1434 1438 1440 1449 1450 1452 1453 1458 1462 1466 1468 1473 1476 1478 1476 1481 1480 1479 1485 1486 1485 1484 1482 1479 1481 1483 1483 1476
1493 1488 1481 1475 1470 1464 1458 1453 1448 1445 1441 1438 1436 1434 1433 1434 1430 1429 1430 1431 1437 1440 1431 1446 1450 1451 1453 1459 1460 1466 1470 1472 1473 1475 1480 1475 1481 1483 1485 1481 1483 1480 1481 1481 1480 1478 1478
1490 1483 1477 1471 1465 1458 1453 1448 1443 1439 1436 1433 1430 1427 1427 1425 1426 1425 1427 1429 1436 1441 1425 1441 1445 1446 1451 1456 1459 1464 1470 1473 1474 1475 1477 1474 1480 1479 1476 1479 1481 1481 1482 1481 1480 1480 1477
1486 1480 1473 1466 1460 1454 1448 1443 1438 1434 1430 1425 1421 1417 1416 1419 1417 1421 1424 1426 1434 1421 1430 1439 1439 1443 1446 1451 1456 1459 1465 1469 1468 1476 1474 1473 1471 1474 1477 1478 1479 1479 1482 1475 1476 1476 1453
1483 1476 1470 1463 1456 1450 1444 1439 1434 1428 1424 1418 1407 1394 1388 1397 1409 1415 1421 1426 1415 1415 1417 1428 1433 1439 1440 1447 1452 1456 1461 1465 1466 1468 1469 1468 1460 1467 1471 1471 1467 1472 1471 1464 1455 1443 1436
1480 1473 1467 1460 1453 1447 1441 1435 1429 1424 1418 1411 1399 1393 1389 1394 1404 1413 1420 1413 1407 1407 1414 1419 1434 1437 1441 1444 1444 1452 1457 1456 1456 1463 1467 1468 1469 1465 1467 1468 1471 1471 1473 1464 1464 1455 1461
1479 1471 1465 1458 1451 1444 1438 1432 1428 1421 1414 1408 1401 1398 1398 1402 1406 1412 1418 1411 1411 1410 1411 1417 1423 1429 1434 1440 1441 1446 1450 1447 1450 1453 1457 1460 1464 1459 1463 1469 1467 1465 1464 1466 1467 1453 1435
1477 1469 1463 1456 1449 1442 1435 1431 1425 1419 1413 1406 1402 1401 1403 1406 1410 1414 1411 1414 1412 1414 1413 1415 1420 1424 1426 1433 1438 1441 1442 1446 1447 1449 1456 1459 1463 1461 1466 1461 1449 1462 1463 1462 1456 1443 1429
1475 1468 1461 1455 1448 1441 1434 1429 1422 1417 1412 1406 1402 1401 1403 1406 1412 1415 1411 1414 1412 1415 1414 1414 1418 1420 1425 1431 1436 1439 1440 1442 1446 1450 1454 1455 1457 1456 1447 1440 1444 1442 1442 1445 1447 1438 1433
1473 1466 1459 1453 1447 1440 1433 1426 1420 1414 1409 1403 1403 1402 1405 1406 1404 1408 1413 1413 1413 1415 1414 1414 1419 1421 1427 1430 1436 1436 1440 1442 1445 1446 1447 1452 1457 1451 1434 1441 1441 1441 1431 1432 1440 1439 1425
1471 1466 1458 1452 1446 1440 1433 1426 1420 1412 1403 1400 1397 1399 1405 1406 1406 1407 1407 1411 1411 1413 1415 1416 1421 1423 1426 1430 1434 1437 1440 1441 1442 1444 1447 1448 1444 1444 1430 1424 1428 1436 1427 1431 1433 1424 1406
1470 1464 1458 1452 1446 1440 1434 1426 1421 1413 1402 1398 1399 1400 1402 1405 1407 1405 1408 1410 1412 1414 1417 1418 1423 1422 1424 1428 1432 1435 1438 1439 1441 1442 1445 1446 1444 1442 1434 1430 1428 1424 1419 1419 1420 1409 1410
1469 1464 1458 1452 1446 1440 1435 1429 1422 1416 1409 1404 1403 1402 1404 1406 1409 1407 1410 1412 1413 1416 1417 1420 1419 1423 1425 1425 1428 1429 1433 1436 1433 1438 1441 1441 1438 1438 1430 1423 1416 1413 1407 1406 1406 1404 1396
1469 1463 1458 1452 1446 1441 1436 1431 1425 1420 1415 1413 1410 1408 1410 1413 1412 1410 1412 1414 1414 1414 1421 1422 1423 1424 1426 1428 1429 1431 1432 1432 1433 1433 1436 1440 1440 1438 1418 1408 1403 1401 1397 1396 1396 1395 1392
1467 1463 1458 1452 1447 1442 1437 1433 1429 1424 1421 1419 1417 1415 1411 1412 1412 1411 1413 1414 1415 1417 1419 1423 1425 1426 1429 1429 1429 1429 1429 1429 1429 1429 1431 1433 1439 1440 1423 1414 1397 1388 1391 1390 1389 1384 1383
1465 1462 1457 1452 1447 1443 1438 1434 1430 1426 1424 1421 1419 1417 1415 1414 1414 1415 1415 1417 1419 1420 1421 1424 1425 1427 1427 1429 1429 1425 1424 1425 1419 1422 1425 1427 1432 1428 1421 1411 1392 1383 1388 1388 1386 1375 1373
1463 1460 1456 1451 1447 1443 1439 1435 1432 1429 1425 1423 1421 1419 1418 1417 1414 1415 1415 1417 1418 1420 1422 1424 1425 1426 1427 1427 1426 1421 1411 1410 1412 1417 1422 1422 1426 1428 1422 1415 1393 1384 1386 1387 1385 1372 1372
1461 1458 1455 1450 1446 1443 1438 1435 1431 1428 1426 1424 1423 1421 1419 1417 1411 1412 1413 1415 1416 1418 1421 1423 1424 1424 1426 1424 1422 1419 1412 1412 1407 1407 1416 1422 1426 1422 1419 1414 1392 1384 1385 1386 1375 1380 1374
1458 1455 1453 1449 1444 1441 1438 1434 1430 1426 1424 1423 1422 1420 1420 1417 1410 1410 1412 1412 1414 1415 1416 1422 1424 1424 1425 1425 1422 1416 1415 1409 1409 1405 1405 1405 1411 1414 1408 1406 1394 1384 1384 1380 1378 1377 1377
1456 1453 1450 1446 1442 1439 1436 1433 1430 1429 1426 1424 1422 1420 1418 1416 1411 1409 1410 1411 1412 1414 1416 1418 1419 1419 1421 1421 1419 1417 1413 1410 1405 1398 1405 1404 1399 1394 1395 1383 1381 1381 1379 1378 1377 1377 1376